[[{"header":{"parameterUnit":"m.s-1","parameterCategory":1,"la1":30.2991,"la2":30.254,"lo1":-89.0895,"lo2":-89.0444,"dy":0.0017,"dx":0.0017,"nx":28,"ny":28,"refTime":"2024-11-24T09:00:00:Z","depth":0,"parameterNumber":2,"parameterNumberName":"U-component_of_WINDS"},"data":[0,0,0,0,0,0,0,0,0,0,0,0,0,0,0,0,0,0,0,0,0,0,0,0,0,0,0,0,0,0,0,0,0,0,0,0,0,0,0,0,0,0,0,0,0,0,0,0,0,0,0,0,0,0,0,0,0,0,2.3014,2.3015,0,2.3111,2.3112,2.3114,2.3098,2.3096,2.3095,2.3093,2.3192,2.3196,2.3201,0,0,0,0,0,0,0,0,0,0,0,0,0,2.2814,2.2818,2.3014,2.3015,2.3016,2.3111,2.3112,2.3114,2.3098,2.3096,2.3094,2.3092,2.3191,2.3196,2.3201,0,0,0,0,0,0,0,0,0,0,0,0,0,2.2905,2.2819,2.3013,2.302,2.3021,2.3111,2.3113,2.3114,2.3099,2.3096,2.3094,2.3091,2.3189,2.3195,2.3202,2.3291,0,0,2.3221,2.3224,0,0,0,0,0,0,0,0,2.29,2.2912,2.3018,2.302,2.3021,2.309,2.3078,2.3173,2.3099,2.3069,2.3093,2.309,2.316,2.3169,2.3193,2.3295,2.33,2.3221,2.3225,2.3228,2.323,0,0,0,0,0,0,0,2.2894,2.2908,2.3052,2.3019,2.3022,2.3018,2.3028,2.3096,2.3128,2.3072,2.3071,2.3083,2.3161,2.3187,2.3195,2.3301,2.3221,2.3227,2.3231,2.3233,2.3483,2.3486,0,0,0,0,0,0,2.2886,2.2903,2.3049,2.3055,2.2953,2.3023,2.3035,2.307,2.3127,2.3133,2.3085,2.3082,2.3177,2.3187,2.3198,2.3307,2.3228,2.3234,2.3237,2.348,2.3484,2.3487,0,0,0,0,0,0,2.2881,2.2899,2.3045,2.2979,2.2997,2.303,2.307,2.3074,2.3099,2.3137,2.3142,2.3105,2.3175,2.3189,2.3268,2.331,2.3237,2.3242,2.3477,2.3481,2.3485,2.3524,0,0,0,0,0,0,2.2876,2.2897,2.2931,2.298,2.3001,2.3114,2.3072,2.3077,2.311,2.3107,2.3157,2.3163,2.3175,2.3259,2.3274,2.3317,2.3247,2.3473,2.3479,2.3484,2.3519,2.3529,2.3538,0,0,0,0,0,2.2869,2.2938,2.2933,2.2951,2.3044,2.3116,2.3128,2.314,2.3114,2.3148,2.3173,2.3162,2.3303,2.3267,2.3284,2.333,2.3471,2.3477,2.3483,2.3515,2.3527,2.3537,0,0,0,0,0,0,2.2893,2.2944,2.294,2.3027,2.3067,2.3113,2.3157,2.3152,2.32,2.3195,2.3208,2.3219,2.3299,2.3322,2.3281,2.3419,2.3383,2.3393,2.3401,2.3413,2.3422,2.3414,2.3253,0,0,0,0,0,2.2909,2.2963,2.3005,2.3078,2.3098,2.3124,2.3156,2.3162,2.3204,2.3221,2.3251,2.3292,2.3346,2.3381,2.3432,2.3523,2.3533,2.3563,2.3572,2.3579,2.3588,2.3638,2.3651,2.3508,2.3508,2.3508,0,0,2.2941,2.2976,2.3009,2.3084,2.3116,2.3171,2.3139,2.3199,2.324,2.323,2.3306,2.333,2.3377,2.3462,2.3501,2.3484,2.363,2.3587,2.3593,2.3597,2.3646,2.3659,2.3671,2.3512,2.3511,2.3511,0,0,2.3029,2.3061,2.3126,2.3159,2.3208,2.3225,2.324,2.3288,2.3303,2.338,2.3373,2.3423,2.3515,2.3549,2.3578,2.3681,2.3673,2.3697,2.3745,2.3794,2.3805,2.3815,2.3852,2.3865,2.3706,2.3706,2.3706,0,2.3063,2.3147,2.3159,2.3221,2.3254,2.3248,2.3313,2.3344,2.3408,2.3431,2.3411,2.3527,2.3558,2.3651,2.3677,2.3701,2.3719,2.3691,2.3803,2.3813,2.3823,2.3858,2.3871,2.3709,2.3708,2.3708,2.3708,0,2.3187,2.3245,2.3292,2.3353,2.3392,2.3455,2.3477,2.3514,2.3517,2.3536,2.3615,2.3653,2.3712,2.3735,2.3738,2.3829,2.3817,2.38,2.3763,2.3839,2.3872,2.3885,2.3712,2.3711,2.3711,2.371,0,0,2.3291,2.336,2.3377,2.3405,2.346,2.3505,2.3569,2.3627,2.3659,2.3703,2.3757,2.3835,2.3821,2.3854,2.3861,2.3904,2.3983,2.3882,2.3883,2.3899,2.4086,2.4098,2.4113,2.3978,2.3981,2.3983,2.4082,0,2.3384,2.3496,2.3509,2.3609,2.3663,2.3659,2.3714,2.3754,2.3774,2.3823,2.3845,2.3901,2.3877,2.3897,2.3939,2.3964,2.402,2.3957,2.4028,2.403,2.4016,2.413,2.4143,2.4234,2.4095,2.4097,2.4099,0,2.3507,2.3555,2.366,2.3708,2.3732,2.3781,2.3836,2.3883,2.3928,2.394,2.3978,2.398,2.4046,2.4008,2.4098,2.4055,2.4085,2.4102,2.4106,2.4112,2.4068,2.414,2.4264,2.4277,2.4119,2.4118,2.4116,0,2.3572,2.3664,2.3739,2.3763,2.3821,2.3856,2.3882,2.3924,2.3959,2.4007,2.403,2.4085,2.4115,2.4158,2.4175,2.4146,2.4265,2.4228,2.4277,2.4276,2.4301,2.4299,2.4432,2.4322,2.4321,2.4321,2.4321,0,2.3674,2.3738,2.3769,2.3815,2.3887,2.3902,2.3973,2.3998,2.4036,2.4087,2.4087,2.4134,2.4154,2.4205,2.4219,2.4292,2.4306,2.4317,2.432,2.4317,2.4316,2.4336,2.433,2.4325,2.4324,2.4323,2.4323,0,2.3758,2.3781,2.3863,2.3911,2.3925,2.3976,2.4018,2.4063,2.4083,2.4147,2.4163,2.4195,2.4255,2.4277,2.435,2.4359,2.4444,2.4442,2.4429,2.4429,2.4476,2.4472,2.4626,2.4647,2.4524,2.4525,2.4526,0,2.3821,2.387,2.3925,2.3959,2.3986,2.4041,2.4077,2.4095,2.4132,2.4188,2.4226,2.4286,2.4335,2.4431,2.4461,2.4517,2.4515,2.4566,2.4524,2.4519,2.4516,2.4513,2.4518,2.4573,2.4575,2.4576,2.4576,0,2.393,2.3939,2.3991,2.4047,2.409,2.4135,2.4178,2.4207,2.4231,2.4273,2.4334,2.4372,2.4448,2.4507,2.4565,2.4591,2.4588,2.459,2.4604,2.4601,2.4591,2.4597,2.445,2.4586,2.4585,2.4584,2.4584,2.4583,2.4005,2.4049,2.4095,2.4153,2.4188,2.4229,2.4273,2.43,2.4352,2.4415,2.4422,2.4489,2.4534,2.4611,2.464,2.4693,2.4679,2.4699,2.4705,2.4709,2.4713,2.4584,2.4703,2.4703,2.4703,2.4703,2.4703,0,2.4113,2.4143,2.4196,2.4258,2.4304,2.4298,2.4346,2.4385,2.4443,2.4486,2.4534,2.4606,2.4664,2.4699,2.4758,2.4793,2.4793,2.4808,2.4805,2.4811,2.4722,2.4703,2.4807,2.4807,2.4807,2.4807,2.4807,2.4807,2.4175,2.425,2.4265,2.4357,2.4387,2.4452,2.448,2.4519,2.4553,2.4633,2.4682,2.4704,2.4744,2.4806,2.4859,2.4868,2.4889,2.4905,2.4913,2.4828,2.4817,2.4807,2.479,2.491,2.491,2.4998,2.4999,2.4999]},{"header":{"parameterUnit":"m.s-1","parameterCategory":1,"la1":30.2991,"la2":30.254,"lo1":-89.0895,"lo2":-89.0444,"dy":0.0017,"dx":0.0017,"nx":28,"ny":28,"refTime":"2024-11-24T09:00:00:Z","depth":0,"parameterNumber":3,"parameterNumberName":"V-component_of_WINDS"},"data":[0,0,0,0,0,0,0,0,0,0,0,0,0,0,0,0,0,0,0,0,0,0,0,0,0,0,0,0,0,0,0,0,0,0,0,0,0,0,0,0,0,0,0,0,0,0,0,0,0,0,0,0,0,0,0,0,0,0,4.3337,4.3338,0,4.346,4.3461,4.3463,4.3469,4.3467,4.3466,4.3465,4.3584,4.3588,4.3592,0,0,0,0,0,0,0,0,0,0,0,0,0,4.3102,4.3106,4.3337,4.3338,4.334,4.346,4.3461,4.3463,4.3469,4.3467,4.3466,4.3464,4.3582,4.3588,4.3593,0,0,0,0,0,0,0,0,0,0,0,0,0,4.3212,4.3108,4.3337,4.3358,4.3361,4.3459,4.3461,4.3463,4.3469,4.3467,4.3465,4.3463,4.358,4.3587,4.3594,4.3677,0,0,4.3614,4.3617,0,0,0,0,0,0,0,0,4.3206,4.3221,4.3353,4.3356,4.336,4.3447,4.3422,4.3535,4.347,4.3428,4.3465,4.3462,4.3539,4.3549,4.3577,4.3683,4.3688,4.3615,4.3619,4.3622,4.3624,0,0,0,0,0,0,0,4.3198,4.3215,4.3385,4.3355,4.3359,4.3359,4.3372,4.3443,4.3494,4.3431,4.3432,4.3447,4.3541,4.357,4.358,4.369,4.3615,4.3621,4.3625,4.3627,4.3871,4.3874,0,0,0,0,0,0,4.3187,4.3209,4.3381,4.3389,4.3276,4.3365,4.338,4.3421,4.3493,4.3502,4.3449,4.3447,4.356,4.3572,4.3584,4.3688,4.3622,4.3628,4.3632,4.3869,4.3872,4.3875,0,0,0,0,0,0,4.3182,4.3203,4.3376,4.3299,4.3322,4.3371,4.3417,4.3425,4.3454,4.3506,4.3515,4.347,4.3559,4.3574,4.3655,4.3692,4.3631,4.3637,4.3866,4.387,4.3873,4.3895,0,0,0,0,0,0,4.3176,4.3201,4.3235,4.33,4.3326,4.3447,4.342,4.3429,4.3467,4.3465,4.3529,4.3537,4.3558,4.3645,4.3662,4.37,4.3642,4.3863,4.3868,4.3872,4.3892,4.3899,4.3906,0,0,0,0,0,4.3167,4.3234,4.3236,4.3257,4.3369,4.3449,4.3464,4.3489,4.347,4.3503,4.3537,4.3535,4.3685,4.3653,4.3672,4.3713,4.3861,4.3867,4.3872,4.3888,4.3898,4.3906,0,0,0,0,0,0,4.3169,4.3243,4.3246,4.3337,4.3387,4.345,4.3493,4.3498,4.3553,4.3549,4.3576,4.359,4.367,4.3699,4.3662,4.3798,4.377,4.378,4.3777,4.3786,4.3793,4.3785,4.3648,0,0,0,0,0,4.3181,4.3242,4.3302,4.3376,4.3401,4.3443,4.3479,4.3494,4.3546,4.3567,4.3606,4.3655,4.3713,4.3751,4.3807,4.3896,4.3909,4.3933,4.394,4.3946,4.3954,4.4003,4.4015,4.3893,4.3893,4.3893,0,0,4.3204,4.3252,4.3288,4.3378,4.3419,4.348,4.3461,4.3526,4.3571,4.3576,4.3656,4.3686,4.3742,4.3827,4.3866,4.3854,4.3991,4.3953,4.3957,4.3962,4.401,4.4022,4.4032,4.3897,4.3896,4.3895,0,0,4.3278,4.3321,4.3388,4.343,4.3492,4.352,4.3536,4.3599,4.362,4.3701,4.3706,4.3759,4.3859,4.3899,4.3932,4.4023,4.4023,4.404,4.4078,4.4125,4.4135,4.4144,4.4176,4.4188,4.4048,4.4048,4.4048,0,4.3299,4.3393,4.3421,4.3487,4.3526,4.3536,4.3604,4.3642,4.3719,4.3744,4.373,4.3856,4.3894,4.3989,4.4012,4.4038,4.4057,4.4033,4.4132,4.4141,4.4149,4.4181,4.4193,4.4049,4.4049,4.4049,4.4049,0,4.3416,4.3481,4.3527,4.3605,4.3648,4.3714,4.3751,4.3792,4.3803,4.3832,4.3913,4.396,4.4026,4.405,4.406,4.4146,4.4137,4.4127,4.4099,4.4162,4.4192,4.4204,4.4052,4.4051,4.4051,4.405,0,0,4.3494,4.3587,4.3604,4.364,4.371,4.376,4.3826,4.3894,4.3928,4.3981,4.4036,4.4121,4.4113,4.4151,4.4166,4.4208,4.4277,4.4193,4.4194,4.4207,4.4375,4.4383,4.4396,4.4278,4.428,4.4282,4.4371,0,4.3577,4.3698,4.3725,4.3828,4.3889,4.3899,4.3957,4.4005,4.4034,4.4088,4.4117,4.4178,4.4162,4.4185,4.4227,4.426,4.4311,4.4254,4.4329,4.4331,4.4315,4.4412,4.442,4.4502,4.4382,4.4384,4.4386,0,4.3689,4.3748,4.3858,4.3922,4.3948,4.4,4.4064,4.4116,4.4171,4.4188,4.4231,4.4243,4.431,4.4279,4.4372,4.4333,4.4365,4.4386,4.4389,4.4398,4.4363,4.4423,4.4528,4.4541,4.4404,4.4403,4.4402,0,4.3737,4.3842,4.3923,4.3952,4.4028,4.4065,4.4097,4.415,4.4189,4.4245,4.427,4.4332,4.4366,4.4412,4.4439,4.4414,4.453,4.4501,4.4546,4.4545,4.457,4.4568,4.4682,4.4589,4.4589,4.4589,4.4589,0,4.3827,4.3894,4.3945,4.3994,4.407,4.4099,4.4172,4.4205,4.4252,4.4306,4.4317,4.4368,4.44,4.4454,4.4475,4.4549,4.4564,4.4579,4.4584,4.4579,4.4577,4.4601,4.4596,4.4592,4.4592,4.4591,4.459,0,4.3892,4.393,4.4018,4.4083,4.4101,4.4154,4.4209,4.4256,4.4285,4.4354,4.4371,4.4416,4.4481,4.4512,4.4591,4.4606,4.469,4.469,4.4672,4.4674,4.4717,4.4713,4.4851,4.487,4.4764,4.4765,4.4766,0,4.3948,4.4,4.4072,4.4111,4.4145,4.4207,4.4248,4.4279,4.432,4.4387,4.4426,4.4492,4.4547,4.4649,4.4687,4.4748,4.4751,4.4795,4.476,4.4753,4.4752,4.4749,4.4755,4.4801,4.4802,4.4803,4.4804,0,4.4042,4.4058,4.4118,4.4185,4.4234,4.4287,4.4339,4.437,4.4409,4.4455,4.4523,4.4565,4.4648,4.4713,4.4777,4.4808,4.4812,4.4814,4.4828,4.4823,4.4811,4.4819,4.469,4.4811,4.481,4.481,4.4809,4.4809,4.4105,4.4152,4.4211,4.4277,4.4321,4.4369,4.4418,4.4454,4.4512,4.4584,4.4597,4.4669,4.4722,4.4809,4.4843,4.4898,4.4888,4.4907,4.4912,4.4917,4.492,4.4802,4.4909,4.4909,4.4909,4.4909,4.4909,0,4.42,4.4239,4.43,4.4374,4.4426,4.4428,4.4486,4.4529,4.4593,4.4644,4.4698,4.4776,4.4839,4.4883,4.4947,4.4983,4.4986,4.4998,4.4996,4.5003,4.4925,4.4907,4.4995,4.4995,4.4995,4.4994,4.4994,4.4994,4.4256,4.4337,4.4361,4.4463,4.45,4.4573,4.4606,4.4651,4.4692,4.4779,4.4833,4.4862,4.491,4.4977,4.5035,4.5046,4.5069,4.5081,4.5092,4.5018,4.5009,4.5,4.4984,4.5086,4.5086,4.5166,4.5167,4.5168]}]]